This is the latest recevied weather packets stored in our database for station/object WC4PEM-9. If no packets are shown the sender has not sent any weather packets the latest 10 day(s).
| Time | Temp. | Humidity | Pressure | Rain* | Wind** | Luminosity | Snow |
|---|---|---|---|---|---|---|---|
| 1777164839 | 20.56° C | 94% | 1010.5 hPa | 0 mm | - | - | - |
| 1777164539 | 20.56° C | 94% | 1010.5 hPa | 0 mm | - | - | - |
| 1777164239 | 20.56° C | 94% | 1010.5 hPa | 0 mm | - | - | - |
| 1777163939 | 20.56° C | 94% | 1010.1 hPa | 0 mm | - | - | - |
| 1777163639 | 20.56° C | 94% | 1010.1 hPa | 0.25 mm | - | - | - |
| 1777163339 | 21.11° C | 94% | 1009.8 hPa | 0.51 mm | - | - | - |
| 1777163039 | 21.11° C | 94% | 1009.9 hPa | 1.02 mm | - | - | - |
| 1777162739 | 21.11° C | 94% | 1010.1 hPa | 1.52 mm | - | - | - |
| 1777162439 | 21.11° C | 94% | 1009.9 hPa | 2.03 mm | - | - | - |
| 1777162139 | 21.11° C | 94% | 1009.8 hPa | 2.79 mm | - | - | - |
| 1777161839 | 21.11° C | 94% | 1009.6 hPa | 3.3 mm | - | - | - |
| 1777161539 | 21.67° C | 94% | 1009.7 hPa | 4.06 mm | - | - | - |
| 1777161239 | 21.67° C | 94% | 1009.6 hPa | 5.08 mm | - | - | - |
| 1777160939 | 21.67° C | 94% | 1009.5 hPa | 5.84 mm | - | - | - |
| 1777160639 | 21.67° C | 94% | 1009.3 hPa | 6.86 mm | - | - | - |
| 1777160339 | 22.22° C | 94% | 1009.1 hPa | 8.13 mm | - | - | - |
| 1777160039 | 22.22° C | 94% | 1009.2 hPa | 8.89 mm | - | - | - |
| 1777159739 | 22.22° C | 94% | 1009.2 hPa | 9.91 mm | - | - | - |
| 1777159439 | 22.22° C | 94% | 1009.2 hPa | 10.67 mm | - | - | - |
| 1777159139 | 22.22° C | 94% | 1009.1 hPa | 11.43 mm | - | - | - |
| 1777158839 | 22.22° C | 94% | 1009.1 hPa | 12.45 mm | - | - | - |
| 1777158539 | 22.22° C | 94% | 1009.1 hPa | 13.21 mm | - | - | - |
| 1777158240 | 22.22° C | 94% | 1009.2 hPa | 14.22 mm | - | - | - |
| 1777157939 | 21.67° C | 95% | 1009.4 hPa | 14.99 mm | - | - | - |
| 1777157640 | 21.67° C | 94% | 1009.3 hPa | 15.75 mm | - | - | - |
* Rain latest hour (hover to see other rain measurements)
** Current wind speed in m/s (hover to see current wind gust speed)